[[{"header":{"parameterUnit":"m.s-1","parameterCategory":1,"la1":30.2991,"la2":30.254,"lo1":-89.0895,"lo2":-89.0444,"dy":0.0017,"dx":0.0017,"nx":28,"ny":28,"refTime":"2023-11-22T09:00:00:Z","depth":0,"parameterNumber":2,"parameterNumberName":"U-component_of_WINDS"},"data":[0,0,0,0,0,0,0,0,0,0,0,0,0,0,0,0,0,0,0,0,0,0,0,0,0,0,0,0,0,0,0,0,0,0,0,0,0,0,0,0,0,0,0,0,0,0,0,0,0,0,0,0,0,0,0,0,0,0,0.335,0.335,0,0.3355,0.3355,0.3356,0.3377,0.3377,0.3378,0.3378,0.3381,0.3381,0.3381,0,0,0,0,0,0,0,0,0,0,0,0,0,0.3355,0.3355,0.335,0.335,0.335,0.3355,0.3355,0.3356,0.3376,0.3377,0.3378,0.3378,0.3381,0.3381,0.3381,0,0,0,0,0,0,0,0,0,0,0,0,0,0.3356,0.3355,0.335,0.3361,0.3362,0.3355,0.3355,0.3356,0.3376,0.3377,0.3378,0.3378,0.3382,0.3381,0.3381,0.3363,0,0,0.3379,0.3379,0,0,0,0,0,0,0,0,0.3356,0.3356,0.3359,0.336,0.3361,0.3366,0.3359,0.3358,0.3376,0.3371,0.3378,0.3379,0.3376,0.3376,0.3375,0.3363,0.3363,0.3379,0.3378,0.3378,0.3378,0,0,0,0,0,0,0,0.3356,0.3356,0.3352,0.3359,0.3361,0.3365,0.3366,0.3359,0.3369,0.3371,0.3373,0.3373,0.3376,0.3375,0.3375,0.3363,0.3379,0.3378,0.3378,0.3378,0.3337,0.3336,0,0,0,0,0,0,0.3354,0.3355,0.3352,0.3352,0.336,0.3365,0.3366,0.3364,0.3369,0.3371,0.3373,0.3374,0.3376,0.3376,0.3375,0.3355,0.3378,0.3378,0.3377,0.3338,0.3337,0.3336,0,0,0,0,0,0,0.3354,0.3354,0.3351,0.3354,0.3354,0.3364,0.3362,0.3364,0.3363,0.337,0.3372,0.337,0.3377,0.3376,0.3366,0.3356,0.3377,0.3377,0.3339,0.3337,0.3336,0.3314,0,0,0,0,0,0,0.3355,0.3354,0.3347,0.3354,0.3354,0.3342,0.3361,0.3363,0.3362,0.3364,0.3368,0.337,0.3377,0.3367,0.3365,0.3355,0.3377,0.334,0.3338,0.3337,0.3316,0.3313,0.331,0,0,0,0,0,0.3355,0.334,0.3347,0.3346,0.3346,0.3342,0.3342,0.3351,0.3361,0.3355,0.336,0.3369,0.3357,0.3365,0.3364,0.3354,0.334,0.3338,0.3337,0.3317,0.3313,0.331,0,0,0,0,0,0,0.3331,0.3341,0.3349,0.3336,0.3338,0.3345,0.3337,0.3347,0.3345,0.3347,0.3358,0.3359,0.3347,0.3349,0.3359,0.3337,0.335,0.3348,0.3336,0.3332,0.3329,0.3328,0.3376,0,0,0,0,0,0.3324,0.3321,0.3329,0.3317,0.3318,0.3328,0.3326,0.3333,0.3335,0.3336,0.334,0.3341,0.3338,0.3335,0.3332,0.3316,0.3318,0.3309,0.3305,0.3303,0.3301,0.3293,0.329,0.333,0.333,0.333,0,0,0.331,0.3316,0.3312,0.3313,0.3315,0.3311,0.3328,0.3322,0.3319,0.3335,0.3326,0.3329,0.3331,0.3318,0.3313,0.332,0.329,0.3301,0.3298,0.3298,0.3291,0.3287,0.3284,0.3329,0.3329,0.333,0,0,0.3283,0.3286,0.3277,0.328,0.3284,0.329,0.3288,0.3294,0.3297,0.3288,0.3301,0.3296,0.329,0.3291,0.3291,0.3265,0.3274,0.3263,0.3247,0.3239,0.3236,0.3233,0.3224,0.3221,0.3261,0.3261,0.3261,0,0.3265,0.3259,0.3271,0.3265,0.3265,0.328,0.3271,0.3272,0.3275,0.3274,0.3282,0.3275,0.3277,0.3265,0.3259,0.3258,0.3256,0.3263,0.3236,0.3233,0.323,0.3222,0.3219,0.326,0.326,0.326,0.326,0,0.3237,0.3233,0.3225,0.3228,0.3227,0.3219,0.3229,0.3227,0.3234,0.324,0.3231,0.3235,0.3233,0.3231,0.3238,0.322,0.3224,0.3234,0.3247,0.3225,0.3217,0.3214,0.3258,0.3259,0.3259,0.3259,0,0,0.3194,0.3205,0.3202,0.3204,0.3209,0.3206,0.3199,0.3199,0.3196,0.3197,0.3192,0.3186,0.3195,0.3195,0.3202,0.3196,0.3176,0.3206,0.3206,0.32,0.3157,0.315,0.3146,0.3182,0.3181,0.3181,0.3157,0,0.3168,0.3157,0.3168,0.3155,0.3151,0.3167,0.3161,0.3163,0.3169,0.3166,0.3171,0.3168,0.318,0.318,0.3174,0.3179,0.3167,0.3181,0.3176,0.3176,0.3175,0.3142,0.3134,0.3111,0.3154,0.3153,0.3153,0,0.3136,0.3137,0.3124,0.3132,0.3131,0.3125,0.3126,0.3123,0.3127,0.3131,0.3131,0.3141,0.3134,0.3148,0.3138,0.3148,0.3146,0.3149,0.3148,0.3148,0.3163,0.3141,0.3104,0.3101,0.3148,0.3148,0.3149,0,0.3106,0.3104,0.3096,0.3098,0.3106,0.3102,0.3105,0.311,0.3109,0.311,0.3109,0.3109,0.3108,0.3107,0.3116,0.3125,0.3106,0.312,0.3109,0.3109,0.3104,0.3104,0.3067,0.3103,0.3103,0.3103,0.3103,0,0.3076,0.3067,0.3083,0.3078,0.3069,0.3082,0.3072,0.3077,0.3081,0.3077,0.309,0.3086,0.3098,0.3095,0.3102,0.3094,0.3093,0.3096,0.3098,0.3095,0.3095,0.3094,0.3096,0.3102,0.3102,0.3103,0.3103,0,0.3041,0.3051,0.3044,0.3053,0.3056,0.3048,0.3056,0.3052,0.3059,0.3053,0.3053,0.3063,0.306,0.3069,0.3068,0.3072,0.306,0.3065,0.3059,0.3061,0.3049,0.305,0.301,0.3005,0.3045,0.3044,0.3044,0,0.3021,0.3015,0.3024,0.3023,0.3026,0.3024,0.3024,0.3036,0.3035,0.3039,0.3034,0.3033,0.3033,0.3028,0.3034,0.3033,0.3038,0.3024,0.3038,0.3035,0.3038,0.3038,0.3038,0.3021,0.302,0.302,0.302,0,0.2984,0.299,0.299,0.2992,0.2991,0.2993,0.2996,0.2994,0.3007,0.3005,0.3004,0.3003,0.3003,0.3001,0.3002,0.3005,0.3014,0.3016,0.3013,0.301,0.3007,0.3009,0.3052,0.3016,0.3017,0.3017,0.3017,0.3017,0.2956,0.2952,0.2958,0.2958,0.2961,0.2964,0.296,0.2967,0.2966,0.2967,0.2975,0.2971,0.2976,0.2978,0.298,0.2977,0.2984,0.298,0.2979,0.2978,0.2976,0.3008,0.2977,0.2977,0.2977,0.2977,0.2978,0,0.292,0.2925,0.2925,0.2929,0.2929,0.2939,0.2943,0.2942,0.2939,0.2943,0.2943,0.2941,0.294,0.2947,0.2947,0.2943,0.2948,0.2943,0.2943,0.2944,0.297,0.2972,0.2939,0.2939,0.2939,0.2939,0.2939,0.2939,0.2901,0.2895,0.2902,0.2898,0.2903,0.2901,0.2902,0.2904,0.2907,0.2905,0.2905,0.291,0.2915,0.2916,0.2915,0.2917,0.2916,0.291,0.2914,0.2938,0.2942,0.2945,0.2948,0.291,0.291,0.2888,0.2887,0.2887]},{"header":{"parameterUnit":"m.s-1","parameterCategory":1,"la1":30.2991,"la2":30.254,"lo1":-89.0895,"lo2":-89.0444,"dy":0.0017,"dx":0.0017,"nx":28,"ny":28,"refTime":"2023-11-22T09:00:00:Z","depth":0,"parameterNumber":3,"parameterNumberName":"V-component_of_WINDS"},"data":[0,0,0,0,0,0,0,0,0,0,0,0,0,0,0,0,0,0,0,0,0,0,0,0,0,0,0,0,0,0,0,0,0,0,0,0,0,0,0,0,0,0,0,0,0,0,0,0,0,0,0,0,0,0,0,0,0,0,0.5724,0.5724,0,0.5718,0.5718,0.5718,0.5691,0.5691,0.569,0.5689,0.5684,0.5684,0.5685,0,0,0,0,0,0,0,0,0,0,0,0,0,0.5713,0.5713,0.5724,0.5724,0.5724,0.5718,0.5718,0.5718,0.5691,0.5691,0.569,0.5689,0.5684,0.5684,0.5685,0,0,0,0,0,0,0,0,0,0,0,0,0,0.5713,0.5713,0.5724,0.571,0.5709,0.5718,0.5718,0.5718,0.5691,0.569,0.569,0.5689,0.5683,0.5684,0.5685,0.5708,0,0,0.5687,0.5687,0,0,0,0,0,0,0,0,0.5713,0.5714,0.5712,0.5711,0.571,0.5704,0.5712,0.5715,0.5692,0.5698,0.5689,0.5688,0.5691,0.5691,0.5692,0.5708,0.5707,0.5687,0.5687,0.5688,0.5688,0,0,0,0,0,0,0,0.5713,0.5714,0.5722,0.5712,0.5711,0.5704,0.5703,0.5712,0.57,0.5697,0.5695,0.5695,0.5691,0.5692,0.5692,0.5707,0.5687,0.5687,0.5688,0.5688,0.5741,0.5742,0,0,0,0,0,0,0.5715,0.5714,0.5722,0.5722,0.5709,0.5705,0.5704,0.5707,0.57,0.5698,0.5696,0.5694,0.5691,0.5691,0.5692,0.5718,0.5688,0.5688,0.5689,0.574,0.5741,0.5742,0,0,0,0,0,0,0.5715,0.5716,0.5722,0.5717,0.5718,0.5706,0.571,0.5707,0.5709,0.5699,0.5697,0.5699,0.569,0.5691,0.5704,0.5718,0.5688,0.5689,0.5739,0.574,0.5742,0.5771,0,0,0,0,0,0,0.5715,0.5716,0.5725,0.5718,0.5718,0.5735,0.5711,0.5708,0.571,0.5707,0.5702,0.57,0.569,0.5703,0.5705,0.5718,0.569,0.5737,0.5739,0.5741,0.5769,0.5774,0.5778,0,0,0,0,0,0.5715,0.5734,0.5726,0.5727,0.5729,0.5735,0.5736,0.5724,0.5711,0.572,0.5713,0.57,0.5716,0.5705,0.5706,0.572,0.5736,0.5739,0.5741,0.5767,0.5773,0.5777,0,0,0,0,0,0,0.5743,0.5733,0.5723,0.5741,0.5739,0.5731,0.5741,0.573,0.5732,0.5729,0.5715,0.5713,0.5729,0.5726,0.5713,0.5742,0.5724,0.5727,0.5743,0.5748,0.5753,0.5753,0.569,0,0,0,0,0,0.5752,0.5758,0.5748,0.5765,0.5764,0.5753,0.5756,0.5746,0.5744,0.5744,0.5738,0.5737,0.5741,0.5745,0.5748,0.5768,0.5767,0.5779,0.5783,0.5786,0.5789,0.5799,0.5804,0.575,0.575,0.5749,0,0,0.5769,0.5764,0.5769,0.577,0.5768,0.5775,0.5753,0.5761,0.5766,0.5745,0.5757,0.5753,0.575,0.5767,0.5774,0.5765,0.5804,0.5789,0.5792,0.5793,0.5802,0.5807,0.5812,0.5751,0.5751,0.5751,0,0,0.5804,0.5801,0.5814,0.5812,0.5808,0.5801,0.5804,0.5797,0.5794,0.5805,0.579,0.5795,0.5804,0.5803,0.5803,0.5837,0.5825,0.5839,0.5861,0.5871,0.5876,0.5879,0.5891,0.5896,0.5842,0.5842,0.5842,0,0.5826,0.5836,0.5822,0.5831,0.5832,0.5813,0.5826,0.5825,0.5823,0.5825,0.5814,0.5824,0.5821,0.5837,0.5845,0.5846,0.5849,0.584,0.5876,0.588,0.5883,0.5894,0.5899,0.5843,0.5843,0.5843,0.5843,0,0.5863,0.587,0.5881,0.5879,0.5881,0.5893,0.5881,0.5885,0.5875,0.5869,0.5881,0.5876,0.5879,0.5882,0.5873,0.5897,0.5891,0.5879,0.586,0.589,0.5901,0.5905,0.5846,0.5845,0.5845,0.5844,0,0,0.5916,0.5906,0.5911,0.5909,0.5904,0.5909,0.592,0.5922,0.5925,0.5925,0.5933,0.594,0.5929,0.5929,0.592,0.5929,0.5956,0.5915,0.5915,0.5923,0.5982,0.5991,0.5996,0.5948,0.5949,0.5949,0.5982,0,0.5949,0.5966,0.5954,0.5973,0.5979,0.5961,0.597,0.5968,0.5962,0.5966,0.596,0.5965,0.595,0.595,0.5958,0.5951,0.5968,0.5949,0.5956,0.5956,0.5957,0.6002,0.6012,0.6043,0.5986,0.5987,0.5987,0,0.599,0.5991,0.6011,0.6004,0.6006,0.6014,0.6015,0.6019,0.6017,0.6012,0.6012,0.6001,0.601,0.5992,0.6006,0.5993,0.5995,0.5992,0.5993,0.5993,0.5974,0.6003,0.6052,0.6057,0.5994,0.5993,0.5993,0,0.6027,0.6033,0.6045,0.6045,0.6037,0.6044,0.6041,0.6037,0.6039,0.604,0.6041,0.6043,0.6044,0.6046,0.6035,0.6023,0.605,0.6031,0.6046,0.6046,0.6052,0.6052,0.6102,0.6054,0.6054,0.6054,0.6054,0,0.6066,0.6078,0.6062,0.6069,0.6083,0.6069,0.6083,0.6078,0.6075,0.6081,0.6065,0.6072,0.6057,0.6062,0.6054,0.6066,0.6067,0.6063,0.6061,0.6064,0.6065,0.6066,0.6063,0.6055,0.6055,0.6054,0.6054,0,0.6109,0.6098,0.611,0.6102,0.61,0.6111,0.6103,0.611,0.6103,0.6111,0.6113,0.6102,0.6107,0.6096,0.61,0.6094,0.6111,0.6106,0.6112,0.611,0.6126,0.6125,0.6179,0.6185,0.6133,0.6133,0.6133,0,0.6134,0.6143,0.6136,0.6139,0.6137,0.6142,0.6143,0.613,0.6133,0.613,0.6137,0.614,0.6143,0.6151,0.6144,0.6147,0.6141,0.616,0.6141,0.6145,0.6141,0.6141,0.6141,0.6163,0.6164,0.6165,0.6165,0,0.618,0.6174,0.6177,0.6178,0.6181,0.6181,0.618,0.6184,0.6169,0.6173,0.6178,0.6179,0.6183,0.6187,0.6187,0.6185,0.6173,0.6171,0.6174,0.6178,0.6182,0.618,0.6122,0.617,0.6169,0.6169,0.6169,0.6168,0.6215,0.6222,0.6218,0.6221,0.6219,0.6219,0.6225,0.6218,0.6222,0.6223,0.6215,0.6222,0.6218,0.6218,0.6217,0.6222,0.6213,0.6219,0.622,0.6221,0.6224,0.6181,0.6222,0.6222,0.6222,0.6222,0.6221,0,0.626,0.6256,0.626,0.6259,0.6262,0.625,0.6248,0.6251,0.6257,0.6255,0.6257,0.6263,0.6266,0.6259,0.6261,0.6267,0.6261,0.6268,0.6267,0.6267,0.6231,0.6228,0.6272,0.6272,0.6272,0.6272,0.6272,0.6272,0.6284,0.6295,0.6289,0.6299,0.6295,0.6301,0.6301,0.63,0.6299,0.6305,0.6308,0.6303,0.6299,0.6301,0.6303,0.6301,0.6303,0.6311,0.6307,0.6274,0.6269,0.6265,0.6261,0.6312,0.6312,0.6342,0.6342,0.6342]}]]